Time,TemperatureF,DewpointF,PressureIn,WindDirection,WindDirectionDegrees,WindSpeedMPH,WindSpeedGustMPH,Humidity,HourlyPrecipIn,Conditions,Clouds,dailyrainin,SoftwareType,DateUTC
2013-07-29 00:02:00,77.6,70.0,29.88,ESE,105,5.0,9.0,77,0.00,,,0.00,weatherlink.com 1.10,2013-07-29 05:02:00,
2013-07-29 00:17:00,77.5,70.0,29.88,ESE,110,9.0,11.0,77,0.00,,,0.00,weatherlink.com 1.10,2013-07-29 05:17:00,
2013-07-29 00:32:00,77.2,70.0,29.88,ESE,102,8.0,10.0,78,0.00,,,0.00,weatherlink.com 1.10,2013-07-29 05:32:00,
2013-07-29 00:47:00,77.1,70.0,29.89,East,100,7.0,13.0,78,0.00,,,0.00,weatherlink.com 1.10,2013-07-29 05:47:00,
2013-07-29 01:02:00,76.9,70.0,29.89,ESE,117,8.0,13.0,79,0.00,,,0.00,weatherlink.com 1.10,2013-07-29 06:02:00,
2013-07-29 01:17:00,76.8,70.0,29.88,ESE,111,5.0,11.0,79,0.00,,,0.00,weatherlink.com 1.10,2013-07-29 06:17:00,
2013-07-29 01:32:00,76.6,70.0,29.88,ESE,109,5.0,11.0,79,0.00,,,0.00,weatherlink.com 1.10,2013-07-29 06:32:00,
2013-07-29 01:47:00,76.4,70.0,29.88,ESE,104,8.0,11.0,80,0.00,,,0.00,weatherlink.com 1.10,2013-07-29 06:47:00,
2013-07-29 02:02:00,76.2,70.0,29.87,ESE,104,7.0,11.0,81,0.00,,,0.00,weatherlink.com 1.10,2013-07-29 07:02:00,
2013-07-29 02:17:00,76.1,70.0,29.87,ESE,112,8.0,11.0,81,0.00,,,0.00,weatherlink.com 1.10,2013-07-29 07:17:00,
2013-07-29 02:32:00,76.4,70.0,29.87,ESE,111,7.0,12.0,81,0.00,,,0.00,weatherlink.com 1.10,2013-07-29 07:32:00,
2013-07-29 02:47:00,76.2,70.0,29.87,ESE,110,8.0,12.0,81,0.00,,,0.00,weatherlink.com 1.10,2013-07-29 07:47:00,
2013-07-29 03:02:00,76.2,70.0,29.87,ESE,111,8.0,12.0,81,0.00,,,0.00,weatherlink.com 1.10,2013-07-29 08:02:00,
2013-07-29 03:17:00,76.0,70.0,29.87,ESE,117,7.0,9.0,81,0.00,,,0.00,weatherlink.com 1.10,2013-07-29 08:17:00,
2013-07-29 03:32:00,75.8,70.0,29.87,ESE,113,7.0,9.0,82,0.00,,,0.00,weatherlink.com 1.10,2013-07-29 08:32:00,
2013-07-29 03:47:00,75.7,70.0,29.87,ESE,108,7.0,10.0,83,0.00,,,0.00,weatherlink.com 1.10,2013-07-29 08:47:00,
2013-07-29 04:02:00,75.8,70.0,29.87,ESE,115,5.0,11.0,83,0.00,,,0.00,weatherlink.com 1.10,2013-07-29 09:02:00,
2013-07-29 04:17:00,75.7,71.0,29.87,East,99,7.0,9.0,84,0.00,,,0.00,weatherlink.com 1.10,2013-07-29 09:17:00,
2013-07-29 04:32:00,75.9,71.0,29.87,ESE,111,5.0,11.0,84,0.00,,,0.00,weatherlink.com 1.10,2013-07-29 09:32:00,
2013-07-29 04:47:00,76.0,71.0,29.87,ESE,114,10.0,12.0,84,0.00,,,0.00,weatherlink.com 1.10,2013-07-29 09:47:00,
2013-07-29 05:17:00,76.1,71.0,29.87,ESE,108,8.0,14.0,85,0.00,,,0.00,weatherlink.com 1.10,2013-07-29 10:17:00,
2013-07-29 05:32:00,76.5,72.0,29.88,SE,139,6.0,14.0,85,0.00,,,0.00,weatherlink.com 1.10,2013-07-29 10:32:00,
2013-07-29 05:47:00,76.5,72.0,29.88,SE,125,7.0,13.0,85,0.00,,,0.00,weatherlink.com 1.10,2013-07-29 10:47:00,
2013-07-29 06:02:00,76.6,72.0,29.88,SE,143,8.0,14.0,85,0.00,,,0.00,weatherlink.com 1.10,2013-07-29 11:02:00,
2013-07-29 06:17:00,76.6,72.0,29.88,ESE,109,9.0,13.0,86,0.00,,,0.00,weatherlink.com 1.10,2013-07-29 11:17:00,
2013-07-29 07:17:00,76.7,73.0,29.89,SE,134,15.0,15.0,87,0.00,,,0.00,weatherlink.com 1.10,2013-07-29 12:17:00,
2013-07-29 07:47:00,76.8,73.0,29.89,ESE,113,4.0,14.0,87,0.00,,,0.00,weatherlink.com 1.10,2013-07-29 12:47:00,
2013-07-29 08:02:00,77.1,73.0,29.89,SE,128,10.0,13.0,87,0.00,,,0.00,weatherlink.com 1.10,2013-07-29 13:02:00,
2013-07-29 08:17:00,77.7,74.0,29.90,SSE,156,5.0,14.0,87,0.00,,,0.00,weatherlink.com 1.10,2013-07-29 13:17:00,
2013-07-29 08:32:00,77.5,73.0,29.90,SE,128,8.0,13.0,87,0.00,,,0.00,weatherlink.com 1.10,2013-07-29 13:32:00,
2013-07-29 08:47:00,77.7,74.0,29.90,SE,139,13.0,13.0,88,0.00,,,0.00,weatherlink.com 1.10,2013-07-29 13:47:00,
2013-07-29 09:02:00,78.7,75.0,29.90,SE,139,9.0,18.0,87,0.00,,,0.00,weatherlink.com 1.10,2013-07-29 14:02:00,
2013-07-29 09:33:00,80.9,75.0,29.91,SSE,165,1.0,13.0,82,0.00,,,0.00,weatherlink.com 1.10,2013-07-29 14:33:00,
2013-07-29 09:48:00,79.4,74.0,29.92,SSW,194,2.0,15.0,84,0.00,,,0.00,weatherlink.com 1.10,2013-07-29 14:48:00,
2013-07-29 10:33:00,80.8,76.0,29.93,SSW,209,5.0,10.0,84,0.00,,,0.00,weatherlink.com 1.10,2013-07-29 15:33:00,
2013-07-29 10:49:00,80.4,75.0,29.93,SSW,199,6.0,10.0,84,0.00,,,0.00,weatherlink.com 1.10,2013-07-29 15:49:00,
2013-07-29 11:03:00,80.1,75.0,29.93,South,188,5.0,10.0,85,0.00,,,0.00,weatherlink.com 1.10,2013-07-29 16:03:00,
2013-07-29 11:18:00,79.3,75.0,29.93,South,190,6.0,7.0,87,0.01,,,0.01,weatherlink.com 1.10,2013-07-29 16:18:00,
2013-07-29 11:33:00,78.5,75.0,29.93,SSE,152,4.0,6.0,90,0.03,,,0.03,weatherlink.com 1.10,2013-07-29 16:33:00,
2013-07-29 11:48:00,78.4,76.0,29.92,SSE,148,0.0,6.0,91,0.04,,,0.04,weatherlink.com 1.10,2013-07-29 16:48:00,
2013-07-29 12:03:00,78.4,76.0,29.92,SSE,157,0.0,0.0,92,0.04,,,0.04,weatherlink.com 1.10,2013-07-29 17:03:00,
2013-07-29 12:18:00,78.2,75.0,29.92,SSE,165,2.0,6.0,91,0.04,,,0.05,weatherlink.com 1.10,2013-07-29 17:18:00,
2013-07-29 12:33:00,77.6,74.0,29.92,SE,146,7.0,8.0,87,0.02,,,0.05,weatherlink.com 1.10,2013-07-29 17:33:00,
2013-07-29 12:48:00,78.3,75.0,29.92,SE,142,5.0,9.0,90,0.01,,,0.05,weatherlink.com 1.10,2013-07-29 17:48:00,
2013-07-29 13:03:00,79.9,77.0,29.91,ESE,119,8.0,12.0,89,0.01,,,0.05,weatherlink.com 1.10,2013-07-29 18:03:00,
2013-07-29 13:33:00,82.8,77.0,29.91,SE,128,12.0,13.0,83,0.00,,,0.05,weatherlink.com 1.10,2013-07-29 18:33:00,
2013-07-29 14:18:00,85.0,78.0,29.90,ESE,113,11.0,14.0,79,0.00,,,0.05,weatherlink.com 1.10,2013-07-29 19:18:00,
2013-07-29 14:48:00,85.2,77.0,29.89,SE,131,14.0,15.0,76,0.00,,,0.05,weatherlink.com 1.10,2013-07-29 19:48:00,
2013-07-29 15:03:00,86.6,77.0,29.89,ESE,107,13.0,17.0,73,0.00,,,0.05,weatherlink.com 1.10,2013-07-29 20:03:00,
2013-07-29 15:18:00,86.6,77.0,29.89,SSE,167,11.0,19.0,73,0.00,,,0.05,weatherlink.com 1.10,2013-07-29 20:18:00,
2013-07-29 15:33:00,85.9,76.0,29.89,SE,136,7.0,17.0,73,0.00,,,0.05,weatherlink.com 1.10,2013-07-29 20:33:00,
2013-07-29 15:48:00,86.7,77.0,29.89,SE,146,11.0,15.0,72,0.00,,,0.05,weatherlink.com 1.10,2013-07-29 20:48:00,
2013-07-29 16:03:00,86.6,76.0,29.88,SSE,163,8.0,17.0,71,0.00,,,0.05,weatherlink.com 1.10,2013-07-29 21:03:00,
2013-07-29 16:18:00,86.8,77.0,29.88,SSE,153,9.0,23.0,72,0.00,,,0.05,weatherlink.com 1.10,2013-07-29 21:18:00,
2013-07-29 16:48:00,88.1,77.0,29.86,South,180,12.0,19.0,69,0.00,,,0.05,weatherlink.com 1.10,2013-07-29 21:48:00,
2013-07-29 17:03:00,87.9,76.0,29.86,SE,142,14.0,20.0,67,0.00,,,0.05,weatherlink.com 1.10,2013-07-29 22:03:00,
2013-07-29 17:18:00,88.5,76.0,29.84,SE,129,10.0,19.0,67,0.00,,,0.05,weatherlink.com 1.10,2013-07-29 22:18:00,
2013-07-29 18:18:00,89.0,75.0,29.82,SE,136,8.0,18.0,64,0.00,,,0.05,weatherlink.com 1.10,2013-07-29 23:18:00,
2013-07-29 18:33:00,89.0,76.0,29.82,SE,142,6.0,17.0,65,0.00,,,0.05,weatherlink.com 1.10,2013-07-29 23:33:00,
2013-07-29 18:48:00,89.0,76.0,29.82,SSE,167,10.0,17.0,65,0.00,,,0.05,weatherlink.com 1.10,2013-07-29 23:48:00,
2013-07-29 19:33:00,88.2,76.0,29.84,ESE,119,5.0,10.0,67,0.00,,,0.05,weatherlink.com 1.10,2013-07-30 00:33:00,
2013-07-29 19:48:00,87.3,76.0,29.84,ESE,112,3.0,8.0,69,0.00,,,0.05,weatherlink.com 1.10,2013-07-30 00:48:00,
2013-07-29 20:03:00,86.8,76.0,29.84,ESE,123,8.0,11.0,70,0.00,,,0.05,weatherlink.com 1.10,2013-07-30 01:03:00,
2013-07-29 20:18:00,86.3,75.0,29.84,ESE,122,7.0,10.0,70,0.00,,,0.05,weatherlink.com 1.10,2013-07-30 01:18:00,
2013-07-29 20:49:00,85.1,76.0,29.84,ESE,113,4.0,9.0,73,0.00,,,0.05,weatherlink.com 1.10,2013-07-30 01:49:00,
2013-07-29 21:04:00,84.7,75.0,29.84,SE,125,5.0,12.0,73,0.00,,,0.05,weatherlink.com 1.10,2013-07-30 02:04:00,
2013-07-29 21:34:00,85.3,75.0,29.85,SE,136,8.0,14.0,70,0.00,,,0.05,weatherlink.com 1.10,2013-07-30 02:34:00,
2013-07-29 21:49:00,84.8,74.0,29.86,SSE,148,7.0,13.0,71,0.00,,,0.05,weatherlink.com 1.10,2013-07-30 02:49:00,
2013-07-29 22:04:00,84.5,75.0,29.88,SE,146,8.0,10.0,72,0.00,,,0.05,weatherlink.com 1.10,2013-07-30 03:04:00,
2013-07-29 22:34:00,83.6,74.0,29.88,SE,136,0.0,8.0,73,0.00,,,0.05,weatherlink.com 1.10,2013-07-30 03:34:00,
2013-07-29 22:49:00,83.7,73.0,29.88,South,171,9.0,10.0,71,0.00,,,0.05,weatherlink.com 1.10,2013-07-30 03:49:00,
2013-07-29 23:04:00,83.6,73.0,29.87,SE,130,6.0,11.0,70,0.00,,,0.05,weatherlink.com 1.10,2013-07-30 04:04:00,
2013-07-29 23:19:00,83.8,72.0,29.87,SE,132,5.0,10.0,68,0.00,,,0.05,weatherlink.com 1.10,2013-07-30 04:19:00,
2013-07-29 23:34:00,83.9,72.0,29.88,SE,143,9.0,10.0,67,0.00,,,0.05,weatherlink.com 1.10,2013-07-30 04:34:00,
2013-07-29 23:49:00,83.7,71.0,29.87,SSE,152,8.0,10.0,66,0.00,,,0.05,weatherlink.com 1.10,2013-07-30 04:49:00,